Погода в Карпово

Россия / Калужская область     55°00′40″N   36°31′43″E
темп.,
°C
ветер,
м/с
пор.,
м/с
влажн.,
%
обл.,
%
осадки,
мм/ч
давл.,
гПа
погр.,
м
13 мая, чт
чт1300:00+8ююв389369 0.0 1018467
03:00+5вюв249732 0.0 101977
06:00+6в399626 0.0 1018255
09:00+12вюв51079100 0.0 1017637
12:00+14юв51171100 0.0 10161353
15:00+14юв61176100 0.8 10151264
18:00+13юв488328 0.4 1014861
21:00+9ююв2596100 0.9 1015109
14 мая, пт
пт1400:00+8ююв239597 0.0 101661
03:00+7ююв23960 0.0 101658
06:00+8юв269412 0.0 1017146
09:00+14юв367790 0.0 1016492
12:00+19юв465996 0.0 10151086
15:00+19юв4769100 0.2 10131155
18:00+15ююз2896100 9.7 1010475
21:00+14в1198100 16.3 101025
15 мая, сб
сб1500:00+14ююв4119674 0.8 1010291
03:00+13юв3897100 0.8 1009158
06:00+13ююв2697100 0.0 1009177
09:00+18ююв358582 0.0 1009532
12:00+20ю467276 1.2 10081120
15:00+20ю47745 3.2 10081188
18:00+17ююз5108466 1.7 1007713
21:00+14ююз512945 4.5 1009593
16 мая, вс
вс1600:00+12ююз4119680 0.0 1010422
03:00+12ююз4129799 0.0 1011444
06:00+12ююз4119610 0.0 1012369
09:00+16юз588013 0.0 1012652
12:00+20юз566234 0.1 10131413
15:00+19юз566922 1.3 10131394
18:00+19юз47735 0.4 1013952
21:00+14зюз23940 0.4 101448
17 мая, пн
пн1700:00+12зюз12945 0.0 101512
03:00+11ююз1194100 0.0 101611
06:00+12вюв119091 0.0 101531
09:00+18юв2469100 0.0 1015561
12:00+22вюв345380 0.0 10141179
15:00+23вюв465628 0.0 10131346
18:00+22вюв497143 0.0 1012959
21:00+17в3119414 1.3 1011232